Mobridge, SD

1:38 PM CDT on October 21, 2019 (GMT -0500)
Mobridge Municipal

Weather History for KMBG - September, 2019

Change the Weather History Date:

Tuesday, September 17, 2019

  Actual Average Record
Temperature  
Mean Temperature 74 °F 60 °F  
Max Temperature 85 °F 73 °F 96 °F (1955)
Min Temperature 63 °F 47 °F 32 °F (1930)
Degree Days  
Heating Degree Days 0    
Month to date heating degree days 31  
Since 1 July heating degree days 53  
Cooling Degree Days 9    
Month to date cooling degree days 55  
Year to date cooling degree days 628  
Growing Degree Days 24 (Base 50)    
Moisture  
Dew Point 63 °F    
Average Humidity 69    
Maximum Humidity 87    
Minimum Humidity 51    
Precipitation  
Precipitation 0.00 in 0.06 in 2.25 in (1977)
Month to date precipitation 3.10 0.86  
Year to date precipitation 23.62 14.77  
Snow  
Snow 0.00 in - - ()
Month to date snowfall 0.0  
Since 1 July snowfall 0.0  
Snow Depth 0.00 in    
Sea Level Pressure  
Sea Level Pressure 29.59 in    
Wind  
Wind Speed 10 mph (SSE)    
Max Wind Speed 20 mph    
Max Gust Speed 27 mph    
Visibility 10 miles    
Events      
T = Trace of Precipitation, MM = Missing Value Source: NWS Daily Summary

Daily Weather History Graph

Daily Weather History Graph

Search for Another Location

Airport or City:

Astronomy

Sep. 17, 2019 Rise Set
Actual Time 7:22 AM CDT 7:49 PM CDT
Civil Twilight 6:52 AM CDT 8:18 PM CDT
Nautical Twilight 6:17 AM CDT 8:53 PM CDT
Astronomical Twilight 5:40 AM CDT 9:30 PM CDT
Moon 9:44 PM CDT (9/17) 10:36 AM CDT (9/17)
Length of Visible Light 13h 26m
Length of Day
12h 26m
Waning Gibbous, 89% of the Moon is Illuminated
Sep 17
Waning Gibbous
Sep 21
Last Quarter
Sep 28
New
Oct 5
First Quarter
Oct 13
Full

Hourly Weather History & Observations

Time (CDT) Temp. Heat Index Dew Point Humidity Pressure Visibility Wind Dir Wind Speed Gust Speed Precip Events Conditions
12:52 AM 71.1 °F - 64.0 °F 78% 29.62 in 10.0 mi South 4.6 mph - N/A   Clear
1:52 AM 70.0 °F - 64.0 °F 81% 29.61 in 10.0 mi SSE 9.2 mph - N/A   Clear
2:52 AM 70.0 °F - 64.0 °F 81% 29.60 in 10.0 mi SSE 10.4 mph - N/A   Clear
3:52 AM 69.1 °F - 63.0 °F 81% 29.59 in 10.0 mi SE 11.5 mph - N/A   Clear
4:52 AM 69.1 °F - 63.0 °F 81% 29.59 in 10.0 mi SE 12.7 mph - N/A   Clear
5:52 AM 68.0 °F - 62.1 °F 81% 29.59 in 10.0 mi SE 11.5 mph - N/A   Clear
6:52 AM 66.0 °F - 60.1 °F 81% 29.59 in 10.0 mi SE 10.4 mph - N/A   Clear
7:52 AM 64.0 °F - 60.1 °F 87% 29.61 in 10.0 mi SSE 5.8 mph - N/A   Clear
8:52 AM 68.0 °F - 61.0 °F 78% 29.61 in 10.0 mi SSE 9.2 mph - N/A   Clear
9:52 AM 70.0 °F - 62.1 °F 76% 29.60 in 10.0 mi SSE 12.7 mph - N/A   Clear
10:52 AM 73.0 °F - 63.0 °F 71% 29.61 in 10.0 mi South 6.9 mph - N/A   Clear
11:52 AM 75.9 °F - 64.0 °F 67% 29.60 in 10.0 mi SE 12.7 mph - N/A   Clear
12:52 PM 79.0 °F - 64.0 °F 60% 29.59 in 10.0 mi SSE 15.0 mph - N/A   Clear
1:52 PM 81.0 °F 82.7 °F 64.9 °F 58% 29.58 in 10.0 mi South 13.8 mph - N/A   Clear
2:52 PM 82.9 °F 85.0 °F 66.0 °F 56% 29.57 in 10.0 mi SSE 12.7 mph - N/A   Clear
3:52 PM 82.9 °F 84.6 °F 64.9 °F 54% 29.57 in 9.0 mi South 12.7 mph - N/A   Clear
4:52 PM 84.9 °F 86.6 °F 64.9 °F 51% 29.57 in 10.0 mi SSW 9.2 mph - N/A   Clear
5:52 PM 81.0 °F 83.0 °F 66.0 °F 60% 29.56 in 10.0 mi South 6.9 mph - N/A   Clear
6:52 PM 78.1 °F - 66.9 °F 68% 29.55 in 10.0 mi SE 9.2 mph - N/A   Clear
7:52 PM 73.9 °F - 66.9 °F 79% 29.56 in 10.0 mi SE 8.1 mph - N/A   Clear
8:52 PM 75.9 °F - 66.9 °F 74% 29.61 in 10.0 mi North - - N/A   Clear
9:52 PM 69.1 °F - 57.0 °F 65% 29.63 in 10.0 mi NW 5.8 mph - N/A   Clear
10:52 PM 66.0 °F - 55.9 °F 70% 29.62 in 10.0 mi Calm Calm - N/A   Clear
11:52 PM 64.0 °F - 57.0 °F 78% 29.63 in 10.0 mi South 5.8 mph - N/A   Partly Cloudy